Temp
70 70 71 70 69 67 68 68 68 70 69 71 72 73 74 75 75 72 69 68 69 72 76 77 76 75 74 72 71 71 71 71 71 71 70 69 69 69 68 68 68 68 68
70 72 70 72 71 70 69 70 70 69 70 70 71 72 73 74 74 74 70 69 67 69 72 75 76 76 75 74 72 71 71 71 71 71 70 69 68 68 68 68 68 67 68
71 75 73 71 72 72 70 70 69 69 68 72 71 72 72 73 73 73 73 69 68 66 68 71 73 74 74 74 72 71 71 70 70 70 70 69 69 68 68 67 67 67 67
72 70 74 72 71 73 71 71 69 69 69 68 69 68 70 71 72 72 72 72 70 72 66 67 69 71 72 74 74 73 72 70 70 70 70 69 69 68 68 67 67 67 67
75 71 72 72 71 71 73 71 71 69 67 67 68 68 68 68 70 76 73 73 72 70 70 67 65 67 69 71 73 74 74 72 71 71 70 69 69 68 68 67 67 67 67
76 73 70 70 71 70 69 70 68 67 68 68 75 74 68 68 69 69 71 75 72 73 71 70 66 67 65 68 70 73 74 75 73 72 71 70 69 68 68 67 67 67 66
75 75 73 71 69 72 74 68 68 68 68 67 66 64 65 66 68 72 71 68 69 71 70 72 68 68 68 65 68 71 74 75 74 74 72 70 68 66 66 66 65 65 66
75 75 75 72 73 70 68 69 69 65 69 66 67 61 60 64 65 66 66 70 69 69 70 70 70 69 69 67 67 67 70 73 73 73 69 67 66 66 66 65 65 66 66
75 75 75 74 69 73 69 71 70 70 70 64 66 63 57 58 59 63 66 68 70 65 67 68 70 69 68 68 66 65 64 65 68 69 67 66 66 65 65 65 65 65 66
76 75 75 74 73 71 72 70 71 69 69 67 63 69 64 63 60 59 63 63 64 65 65 65 66 67 67 66 64 62 59 60 62 65 65 65 64 64 64 65 65 65 65
77 76 75 74 73 73 72 71 70 69 69 70 68 62 68 67 61 60 59 60 63 64 65 65 65 65 64 64 63 60 56 57 58 61 63 63 63 63 63 63 63 64 64
75 76 75 74 74 73 72 70 71 70 71 70 70 65 66 65 66 61 61 61 60 62 65 65 64 64 63 63 62 57 55 54 55 58 59 59 59 60 60 61 62 63 63
75 75 75 74 73 73 73 72 70 71 70 70 69 69 70 66 65 67 62 60 60 61 62 62 64 63 62 61 61 57 54 52 53 55 55 55 55 55 56 57 58 59 60
77 77 75 76 75 74 73 72 71 70 71 69 70 69 70 70 67 65 63 63 58 59 58 61 60 61 59 59 59 54 54 51 50 51 52 52 51 52 52 53 54 55 56
77 76 75 75 75 74 74 72 71 71 70 70 69 70 68 70 68 67 65 64 63 59 57 60 59 57 58 58 55 56 54 50 50 48 48 49 49 50 51 51 52 53 54
76 77 75 75 75 74 73 72 71 72 70 70 70 68 68 70 66 65 66 65 65 66 62 59 56 55 56 55 54 55 53 50 48 47 47 47 47 47 48 49 51 52 54
77 74 75 75 74 74 73 72 72 71 70 69 68 69 68 69 68 67 66 66 65 64 63 54 54 54 54 53 53 52 51 50 48 46 46 45 45 46 46 46 46 49 49
74 76 76 75 75 74 73 72 70 71 69 68 69 68 68 67 68 68 67 66 65 64 64 57 52 51 52 52 52 51 52 53 49 47 46 46 46 45 45 46 47 48 47
76 73 76 74 74 73 72 72 72 70 70 70 70 69 70 69 68 66 66 65 64 59 59 54 50 50 50 52 52 52 52 50 51 48 47 45 45 45 45 47 46 46 46
72 74 74 75 74 73 72 72 71 70 69 70 71 70 70 69 68 66 64 63 60 58 55 52 50 49 50 51 52 50 47 49 48 50 48 44 46 46 45 45 45 45 45
71 72 73 73 72 73 72 71 71 70 69 69 68 68 69 65 57 60 62 59 58 56 53 52 50 49 48 50 49 49 44 39 40 41 41 45 44 45 47 45 45 45 44
67 68 70 71 70 70 57 54 64 70 69 68 66 66 64 54 53 49 49 49 55 56 53 51 50 49 49 50 50 47 40 38 39 42 42 41 45 42 45 45 44 44 43
65 66 67 67 69 70 51 50 51 71 68 67 65 57 52 52 51 50 42 42 42 44 50 55 52 50 49 50 49 44 42 42 39 41 42 36 37 38 41 44 43 43 43
63 63 64 65 67 67 47 47 48 70 66 63 58 56 55 49 49 48 49 45 43 42 45 51 53 51 51 50 52 46 43 41 39 38 42 35 34 34 35 37 42 43 42
60 61 60 60 60 57 43 46 50 63 57 54 53 51 50 48 42 45 45 38 35 34 37 40 40 40 41 43 45 44 38 38 33 34 36 34 33 33 33 33 36 41 41
59 58 58 58 52 55 44 44 52 56 49 45 42 42 42 44 40 41 44 40 37 35 36 36 37 39 41 41 41 45 41 37 33 32 34 36 33 33 32 33 33 34 35
MSLP
1017.90 1018.31 1018.62 1018.99 1019.35 1019.65 1019.84 1020.09 1020.29 1020.43 1020.53 1020.40 1020.36 1020.33 1020.25 1020.09 1019.82 1020.21 1020.49 1020.80 1020.75 1020.73 1020.68 1020.64 1020.75 1020.92 1021.09 1021.33 1021.60 1021.78 1022.01 1022.16 1022.26 1022.38 1022.47 1022.59 1022.68 1022.68 1022.68 1022.70 1022.71 1022.74 1022.85
1017.34 1017.54 1018.04 1018.32 1018.68 1019.00 1019.32 1019.55 1019.72 1019.92 1019.95 1019.95 1019.88 1019.86 1019.86 1019.72 1019.68 1019.76 1020.20 1020.33 1020.42 1020.47 1020.42 1020.33 1020.31 1020.38 1020.46 1020.70 1021.02 1021.29 1021.48 1021.65 1021.76 1021.82 1021.93 1021.98 1021.98 1022.06 1022.14 1022.20 1022.28 1022.35 1022.51
1016.64 1016.82 1017.17 1017.67 1017.91 1018.23 1018.58 1018.97 1019.26 1019.34 1019.61 1019.55 1019.67 1019.45 1019.46 1019.45 1019.51 1019.61 1019.71 1019.98 1020.04 1020.07 1019.96 1019.97 1020.01 1019.97 1019.97 1020.09 1020.39 1020.67 1020.86 1020.99 1021.02 1021.10 1021.14 1021.21 1021.27 1021.37 1021.49 1021.58 1021.73 1021.90 1022.01
1015.81 1016.35 1016.57 1016.90 1017.28 1017.58 1018.00 1018.33 1018.73 1019.08 1019.14 1019.21 1019.31 1019.27 1019.19 1019.12 1019.13 1019.24 1019.25 1019.24 1019.38 1019.46 1019.59 1019.64 1019.58 1019.52 1019.55 1019.66 1019.90 1020.04 1020.12 1020.27 1020.50 1020.64 1020.75 1020.75 1020.68 1020.61 1020.75 1020.95 1021.08 1021.07 1021.27
1015.09 1015.56 1015.88 1016.15 1016.55 1017.10 1017.26 1017.84 1018.20 1018.41 1018.78 1018.84 1018.90 1018.88 1018.97 1018.93 1018.72 1018.56 1018.67 1018.59 1018.61 1018.75 1018.83 1018.85 1019.02 1019.10 1019.14 1019.27 1019.38 1019.51 1019.70 1019.69 1019.94 1020.12 1020.20 1020.27 1020.45 1020.50 1020.47 1020.46 1020.33 1020.35 1020.44
1014.63 1015.02 1015.37 1015.60 1015.90 1016.56 1016.89 1017.22 1017.47 1017.84 1017.94 1018.21 1018.47 1018.45 1018.50 1018.47 1018.27 1018.23 1017.99 1017.89 1017.97 1017.92 1018.03 1018.16 1018.32 1018.56 1018.66 1018.79 1018.84 1018.90 1018.94 1019.01 1019.20 1019.48 1019.59 1019.65 1019.72 1019.82 1019.96 1020.03 1019.93 1019.50 1018.89
1013.86 1014.33 1014.74 1015.24 1015.39 1015.78 1016.02 1016.48 1016.96 1017.41 1017.65 1017.76 1018.50 1018.59 1018.48 1018.08 1017.89 1017.70 1017.34 1017.49 1017.51 1017.36 1017.38 1017.41 1017.64 1017.72 1017.73 1017.96 1018.07 1018.11 1018.15 1018.24 1018.54 1018.79 1018.94 1019.04 1019.42 1019.64 1019.77 1019.70 1019.62 1019.23 1019.38
1013.00 1013.47 1013.99 1014.46 1014.86 1015.32 1015.53 1015.82 1016.33 1016.94 1017.04 1017.33 1018.02 1018.81 1018.74 1018.17 1017.37 1017.06 1016.98 1017.00 1016.78 1016.70 1016.82 1016.83 1016.96 1017.04 1017.07 1017.14 1017.19 1017.32 1017.51 1017.79 1017.94 1018.17 1018.53 1018.82 1019.12 1019.28 1019.38 1019.41 1019.23 1018.98 1018.92
1012.08 1012.53 1012.97 1013.66 1014.14 1014.55 1014.90 1015.06 1015.42 1015.85 1016.33 1016.87 1016.90 1017.58 1018.22 1017.94 1017.35 1016.46 1016.29 1016.27 1016.30 1016.34 1016.31 1016.37 1016.45 1016.52 1016.53 1016.54 1016.49 1016.71 1017.05 1017.42 1017.81 1018.13 1018.49 1018.81 1019.02 1019.12 1019.18 1019.24 1019.04 1018.82 1018.89
1011.11 1011.44 1011.92 1012.64 1013.25 1013.73 1014.03 1014.25 1014.59 1014.93 1015.59 1016.11 1016.70 1016.19 1016.20 1016.40 1017.01 1016.91 1016.24 1015.91 1015.99 1016.15 1016.08 1016.06 1016.10 1016.15 1016.12 1016.20 1016.45 1016.67 1016.81 1017.22 1017.61 1018.02 1018.26 1018.60 1018.83 1019.00 1019.07 1018.99 1018.96 1019.00 1018.84
1010.33 1010.55 1011.05 1011.66 1012.12 1012.61 1013.03 1013.43 1013.80 1014.09 1014.44 1014.92 1015.22 1015.56 1015.80 1015.97 1016.22 1016.63 1016.42 1016.24 1016.00 1015.58 1015.58 1015.61 1015.63 1015.93 1016.05 1016.14 1016.37 1016.72 1017.08 1017.51 1017.72 1017.86 1018.02 1018.35 1018.43 1018.66 1018.81 1018.69 1018.68 1018.72 1018.53
1009.46 1009.89 1010.19 1010.56 1010.99 1011.53 1011.82 1012.16 1012.65 1013.20 1013.49 1013.92 1014.19 1014.49 1014.58 1015.05 1015.35 1015.74 1016.01 1015.81 1015.77 1015.47 1015.23 1015.26 1015.40 1015.54 1015.71 1015.87 1016.18 1016.60 1016.86 1017.19 1017.48 1017.68 1017.87 1018.09 1018.48 1018.69 1018.82 1018.90 1018.92 1018.95 1018.51
1008.42 1008.58 1008.92 1009.54 1009.92 1010.21 1010.74 1011.38 1011.89 1012.20 1012.51 1012.88 1013.17 1013.28 1013.72 1013.83 1014.14 1014.51 1015.07 1015.23 1015.41 1015.26 1015.19 1015.14 1015.19 1015.25 1015.50 1015.79 1016.09 1016.31 1016.82 1017.06 1017.40 1017.74 1017.96 1018.20 1018.44 1018.68 1019.10 1019.03 1018.94 1018.59 1018.28
1006.77 1007.25 1007.78 1008.24 1008.71 1009.22 1009.83 1010.32 1010.68 1011.04 1011.41 1011.72 1012.00 1012.34 1012.60 1012.79 1013.26 1013.56 1013.95 1014.71 1015.15 1015.16 1015.31 1014.95 1015.02 1015.14 1015.33 1015.69 1015.99 1016.40 1016.86 1017.24 1017.49 1017.70 1017.98 1018.14 1018.42 1018.50 1018.74 1018.80 1018.65 1018.34 1018.09
1005.78 1006.20 1006.68 1007.16 1007.55 1008.11 1008.71 1009.23 1009.55 1009.75 1010.28 1010.60 1010.88 1011.37 1011.69 1011.92 1012.26 1012.59 1012.97 1013.27 1013.97 1014.58 1014.87 1014.69 1015.05 1015.09 1015.38 1015.68 1016.02 1016.46 1016.90 1017.48 1017.62 1017.90 1018.00 1018.24 1018.36 1018.30 1018.26 1018.35 1018.22 1018.05 1017.75
1004.89 1005.14 1005.62 1006.06 1006.50 1007.08 1007.55 1008.16 1008.57 1008.85 1009.26 1009.46 1009.79 1010.39 1010.63 1010.88 1011.36 1011.61 1011.93 1012.29 1012.70 1013.32 1014.04 1014.17 1014.89 1015.17 1015.37 1015.64 1016.06 1016.38 1016.87 1017.45 1017.71 1017.88 1018.18 1018.18 1018.09 1018.20 1018.07 1017.94 1018.04 1017.95 1017.58
1004.03 1004.31 1004.67 1005.08 1005.41 1005.89 1006.55 1007.13 1007.36 1007.87 1008.28 1008.55 1008.93 1009.21 1009.60 1009.93 1010.32 1010.79 1011.17 1011.57 1012.06 1012.63 1013.47 1014.40 1014.81 1015.18 1015.56 1015.70 1016.12 1016.37 1016.85 1017.26 1017.86 1018.00 1018.00 1017.96 1018.04 1018.20 1018.47 1017.90 1017.93 1017.80 1017.51
1003.10 1003.34 1003.66 1004.13 1004.54 1004.85 1005.23 1005.82 1006.33 1006.75 1007.26 1007.56 1007.81 1008.36 1008.39 1009.05 1009.37 1009.78 1010.28 1010.80 1011.25 1011.86 1012.65 1013.79 1014.61 1015.16 1015.42 1015.66 1015.84 1016.23 1016.66 1016.88 1017.35 1017.70 1018.18 1018.34 1018.35 1018.36 1018.10 1017.92 1017.65 1017.46 1017.02
1002.41 1002.53 1002.79 1003.13 1003.50 1003.86 1004.21 1004.52 1005.05 1005.67 1006.05 1006.31 1006.64 1007.08 1007.38 1008.00 1008.42 1008.96 1009.46 1010.04 1010.62 1011.32 1011.95 1012.86 1014.03 1014.71 1015.09 1015.51 1016.06 1016.23 1016.61 1016.93 1017.22 1017.67 1018.02 1018.25 1018.20 1018.01 1017.99 1017.95 1017.51 1017.20 1017.05
1001.95 1001.88 1001.88 1002.04 1002.28 1002.69 1003.19 1003.57 1003.97 1004.38 1004.81 1005.16 1005.42 1005.95 1006.38 1006.89 1007.41 1008.03 1008.72 1009.34 1010.09 1010.89 1011.63 1012.44 1013.39 1014.03 1014.58 1014.96 1015.54 1016.09 1016.87 1017.26 1017.64 1017.75 1017.82 1018.17 1018.28 1018.32 1018.28 1017.96 1017.58 1017.23 1017.21
1001.27 1001.19 1001.11 1001.01 1001.28 1001.51 1001.85 1002.42 1002.90 1003.39 1003.88 1004.28 1004.52 1005.06 1005.46 1006.10 1006.72 1007.25 1008.05 1008.71 1009.44 1010.31 1011.26 1012.07 1012.83 1013.44 1013.93 1014.22 1014.65 1015.54 1016.58 1017.46 1017.80 1018.00 1018.26 1018.42 1018.52 1018.39 1018.33 1018.26 1017.96 1017.67 1017.58
1001.10 1000.87 1000.64 1000.63 1000.61 1000.55 1000.58 1001.03 1001.42 1002.08 1002.66 1003.24 1003.59 1004.36 1004.93 1005.62 1006.31 1006.65 1007.14 1007.83 1008.54 1009.59 1010.49 1011.28 1012.22 1012.90 1013.45 1013.81 1014.42 1015.22 1016.40 1017.49 1018.28 1017.65 1018.02 1018.37 1018.40 1018.59 1018.41 1018.28 1018.13 1018.05 1018.04
1001.09 1000.67 1000.34 1000.13 1000.01 999.69 999.89 1000.45 1000.81 1000.92 1001.71 1002.41 1003.00 1003.94 1004.92 1005.31 1005.80 1006.59 1007.16 1007.62 1008.27 1008.87 1009.29 1009.93 1010.98 1011.66 1012.66 1013.31 1013.84 1014.96 1015.90 1016.81 1017.36 1017.59 1017.93 1018.55 1018.71 1018.78 1018.75 1018.61 1018.51 1018.36 1018.29
1000.95 1000.55 1000.19 999.88 999.59 999.17 999.44 1000.03 1000.16 999.90 1000.92 1001.38 1001.97 1003.03 1004.21 1005.33 1005.92 1006.56 1007.16 1007.88 1008.74 1009.25 1009.44 1009.62 1010.08 1010.78 1011.16 1012.32 1013.08 1013.43 1014.85 1016.40 1017.31 1017.43 1017.56 1018.54 1018.71 1019.08 1019.13 1019.04 1018.86 1018.69 1018.66
1000.88 1000.46 1000.00 999.71 999.57 999.28 999.54 999.54 999.95 999.81 1000.79 1001.19 1001.80 1002.90 1003.51 1004.60 1005.62 1006.18 1007.13 1008.22 1009.38 1010.01 1009.97 1009.59 1010.02 1010.47 1011.00 1011.64 1012.80 1013.62 1015.17 1016.19 1017.61 1017.91 1017.86 1018.08 1018.69 1019.18 1019.41 1019.68 1019.17 1018.86 1018.90
1000.48 1000.27 1000.03 999.88 999.56 999.40 999.64 999.70 999.08 999.77 1000.60 1001.12 1001.87 1002.76 1003.25 1004.01 1005.27 1005.86 1006.61 1007.75 1009.08 1010.12 1010.29 1010.56 1010.87 1011.03 1011.54 1012.30 1012.74 1012.91 1014.30 1015.55 1016.81 1017.96 1017.81 1018.23 1018.73 1019.08 1019.41 1019.49 1019.36 1019.10 1018.98
Wind_Speed
7 6 7 7 7 6 7 7 6 6 6 7 6 6 6 5 3 3 4 13 14 15 17 18 18 18 17 16 15 14 13 13 13 13 12 11 11 11 11 11 11 11 10
6 8 7 8 8 8 7 7 7 6 7 6 7 6 6 4 4 3 4 7 14 13 14 17 18 19 19 17 16 15 14 14 14 14 13 13 13 12 12 12 12 12 12
8 10 8 8 9 8 10 7 7 6 5 6 8 6 5 6 5 6 4 5 7 14 15 15 15 18 19 18 17 16 15 15 15 15 15 15 14 14 14 14 14 13 14
9 7 8 7 7 8 8 8 7 6 6 6 6 5 5 6 7 7 6 5 5 6 11 15 15 16 17 18 17 17 17 17 16 16 16 16 16 16 15 15 15 16 15
13 8 8 7 7 7 8 8 7 6 4 4 5 5 5 5 7 8 9 9 8 6 6 11 17 16 16 16 16 18 18 18 17 16 16 16 16 15 15 15 17 16 17
14 10 6 7 7 5 5 6 6 5 4 5 5 6 5 5 6 7 8 8 8 9 8 8 6 9 16 16 17 19 21 20 18 17 17 16 16 15 13 13 14 20 15
15 14 9 8 7 9 10 7 5 7 7 4 3 3 4 6 8 9 7 6 7 8 8 8 5 5 6 19 20 21 23 22 18 17 15 14 2 4 2 2 2 2 2
15 15 13 10 12 6 7 9 8 4 6 6 6 2 4 5 6 6 6 8 11 6 6 7 6 7 7 6 11 21 21 18 16 16 1 6 6 5 5 5 5 3 5
15 17 16 13 9 11 9 10 10 13 10 4 8 6 3 7 1 3 9 8 10 5 6 6 6 7 7 7 7 8 12 10 6 7 7 6 6 6 5 7 7 7 7
15 17 16 15 14 9 12 10 9 9 8 9 1 9 4 4 5 3 3 3 4 5 6 5 5 6 5 4 3 3 7 8 8 8 8 6 4 5 8 7 7 9 8
15 16 17 16 15 12 12 12 11 13 10 9 8 4 10 8 4 4 5 5 2 4 5 5 5 4 4 4 3 4 8 7 9 9 8 8 4 4 6 5 6 9 10
11 14 16 17 17 14 16 13 13 13 13 11 9 6 7 7 11 6 8 7 5 5 5 4 5 4 4 4 5 9 12 10 9 9 8 5 1 3 6 8 10 10 9
10 15 17 16 14 17 16 13 13 14 13 14 14 11 9 7 4 7 5 4 5 4 3 2 4 4 4 3 4 8 9 10 9 9 7 4 2 4 7 7 10 10 11
13 16 16 17 18 17 15 15 11 12 13 13 18 14 11 10 7 5 5 6 3 4 2 5 2 4 4 3 4 9 6 8 9 9 6 4 4 2 2 6 8 9 11
10 13 14 17 18 17 17 16 14 15 13 13 15 14 11 10 9 7 5 5 6 5 5 4 4 1 2 3 5 4 6 9 9 7 7 5 2 1 2 6 8 10 10
12 13 14 17 19 17 17 18 14 15 14 12 12 13 14 11 7 6 6 6 5 8 6 3 2 2 3 3 5 6 7 9 9 9 6 5 2 1 4 5 9 10 9
13 9 13 16 17 18 17 16 18 16 17 15 13 16 14 13 10 8 6 5 6 4 6 1 2 2 3 5 4 4 7 6 4 7 7 4 3 2 5 6 7 8 8
9 11 11 13 15 17 18 19 18 16 17 17 17 14 17 10 14 11 9 11 8 7 6 5 3 2 2 4 6 8 6 5 5 8 7 5 4 5 7 7 7 7 6
12 9 11 12 14 16 17 18 18 17 18 18 17 18 17 14 14 10 9 9 7 4 4 4 4 2 2 3 4 3 4 6 3 9 8 7 6 7 8 8 6 6 4
10 12 12 13 14 15 16 17 17 17 18 17 17 16 16 16 16 13 11 10 7 7 4 4 3 3 3 3 5 5 3 2 3 2 3 3 4 6 6 6 6 6 7
9 10 12 13 12 14 13 17 18 18 17 17 13 14 14 14 14 14 9 9 10 7 5 5 3 3 4 5 8 4 3 2 2 2 2 2 2 1 1 3 5 6 8
8 8 11 12 12 10 16 20 19 17 18 17 15 14 11 13 14 17 14 14 14 11 8 5 4 4 4 5 4 6 4 3 2 2 3 2 1 2 1 2 2 5 5
6 8 9 8 12 14 16 20 22 16 15 15 13 11 7 6 12 9 9 12 9 8 10 10 10 6 7 8 8 6 4 3 4 2 3 2 1 1 2 2 2 2 3
7 7 7 8 10 10 12 17 21 17 14 15 15 14 12 10 8 12 11 10 7 6 5 5 8 7 6 10 9 6 6 6 3 2 3 2 0 1 2 3 4 1 1
6 7 6 7 7 7 10 14 15 13 10 10 11 11 13 12 14 17 13 12 7 4 6 15 15 14 13 15 11 9 4 5 1 2 1 3 1 1 1 3 3 2 2
7 5 7 7 7 6 7 9 14 8 8 7 5 6 12 14 19 19 16 15 12 8 10 8 7 11 10 11 8 6 8 6 4 1 3 3 1 2 1 1 2 1 1
Wind_Direction
184 168 176 174 181 178 190 193 199 207 219 236 236 235 240 240 276 143 157 202 205 204 199 195 197 202 207 208 209 213 217 220 222 223 225 228 231 234 237 239 237 237 235
183 189 176 185 185 184 192 197 199 205 214 219 243 234 240 237 253 257 184 202 214 215 212 207 205 207 212 212 209 212 217 221 224 226 226 228 231 232 234 237 237 237 235
189 193 192 181 187 186 188 195 208 207 206 219 227 233 226 232 231 238 237 196 212 223 218 215 216 216 216 216 210 210 216 220 223 225 227 227 229 231 233 235 238 239 237
192 189 198 197 180 191 184 196 198 213 212 201 215 223 220 222 223 228 231 229 200 210 223 228 224 223 223 223 216 214 217 222 226 228 231 234 233 230 231 234 236 236 235
202 187 194 195 186 187 198 190 207 195 196 207 213 219 225 222 221 229 228 233 231 207 209 215 221 227 229 228 224 222 225 227 225 228 232 235 241 242 239 241 241 243 235
204 201 196 189 190 187 194 194 183 192 188 191 222 229 226 226 227 222 225 228 227 231 213 211 208 228 229 229 225 225 232 233 231 232 235 237 239 243 247 255 262 254 234
197 204 205 200 193 202 208 190 173 198 224 177 159 298 281 243 241 236 227 225 230 222 225 222 205 213 219 223 228 229 233 239 235 235 236 237 240 114 195 262 281 61 244
195 200 205 204 208 201 197 196 192 182 216 180 202 117 274 306 255 226 225 229 236 226 218 223 217 219 220 209 218 229 235 237 245 245 197 137 167 193 213 230 259 274 257
193 200 205 205 197 206 210 207 200 203 217 211 195 157 175 225 293 241 230 224 230 219 228 221 224 228 225 223 215 216 212 217 219 163 166 198 210 228 241 259 269 287 295
198 199 200 201 205 201 212 208 203 207 194 210 218 222 212 152 189 304 308 255 223 229 226 230 229 237 234 205 160 160 168 160 175 179 184 184 196 239 259 279 305 301 290
206 200 200 200 204 206 209 208 204 206 203 210 211 184 229 238 211 186 258 274 294 237 227 218 208 180 152 139 139 123 123 146 177 174 178 197 221 260 282 290 294 284 286
207 204 201 203 208 207 208 206 206 207 211 213 212 205 199 204 227 210 243 243 224 252 224 205 191 183 183 162 159 161 174 174 172 182 171 140 165 302 309 308 305 311 322
207 210 204 204 206 210 210 206 206 211 209 212 212 218 222 219 179 208 204 232 224 242 246 218 193 180 170 164 171 172 173 163 164 161 142 113 65 17 344 324 306 320 324
209 207 207 209 210 208 208 207 205 210 209 214 217 216 219 223 198 177 179 195 258 226 223 236 221 197 181 168 173 162 155 156 149 138 125 123 95 88 338 292 304 306 290
207 204 200 207 210 208 207 203 210 212 209 210 218 217 214 220 215 211 191 174 186 229 236 222 212 214 154 156 154 150 143 148 137 128 130 112 104 70 303 301 300 292 286
207 202 199 205 210 208 206 206 212 217 209 213 214 209 216 218 207 196 198 193 186 221 233 178 187 137 158 127 152 139 133 138 133 126 120 123 112 340 282 297 296 294 303
213 202 204 209 208 207 208 206 214 213 214 212 210 215 213 208 210 209 193 192 187 165 220 123 127 145 164 136 141 118 143 128 143 141 135 139 105 35 339 346 321 299 303
205 213 208 210 213 208 205 206 210 210 213 214 214 208 214 201 209 205 202 200 192 190 197 183 157 157 152 176 156 149 158 154 152 159 155 119 95 63 32 6 347 332 323
229 219 217 207 208 209 208 207 208 209 213 217 212 214 215 202 208 195 191 190 184 166 165 144 145 148 129 168 146 128 155 142 157 153 149 132 94 69 47 22 360 358 330
224 221 215 219 210 209 209 207 207 209 214 217 217 218 217 209 206 192 189 186 169 168 152 130 144 144 143 157 166 155 151 107 120 119 135 119 122 86 50 40 44 86 83
239 227 224 219 209 207 205 204 207 210 213 215 209 208 211 204 198 186 180 177 168 163 154 157 140 151 168 159 178 147 124 109 349 148 160 186 200 189 4 52 62 95 103
257 236 228 227 221 218 207 199 199 206 210 208 198 203 195 180 185 178 174 167 171 165 171 156 147 175 189 159 143 142 114 115 232 236 145 253 174 229 189 64 78 108 99
287 267 249 228 230 229 210 203 201 207 202 199 188 172 165 176 163 156 131 125 118 148 167 170 176 165 155 174 148 136 138 144 182 164 133 208 315 248 355 35 297 172 129
272 271 267 247 239 238 208 204 199 201 195 185 172 170 168 163 161 148 145 127 114 99 126 162 159 157 149 157 173 143 134 110 60 49 148 186 35 253 352 352 309 276 122
254 259 260 265 257 249 214 211 194 191 179 175 167 170 164 163 166 152 138 129 121 85 72 98 98 104 113 122 138 116 119 120 134 262 294 126 177 155 34 323 313 353 201
252 252 262 251 241 246 219 232 213 172 184 170 162 158 161 160 161 161 150 150 142 159 137 113 88 72 88 98 103 124 151 150 127 80 253 157 103 133 176 276 341 356 2